Weather History for Fort Eustis, VA

Change the Weather History Date:

Tuesday, January 1, 2013

  Actual Average Record
Temperature  
Mean Temperature 44 °F -  
Max Temperature 47 °F 50 °F 63 °F (2012)
Min Temperature 42 °F 35 °F 24 °F (2009)
Degree Days  
Heating Degree Days 20    
Moisture  
Dew Point 37 °F    
Average Humidity 74    
Maximum Humidity 94    
Minimum Humidity 47    
Precipitation  
Precipitation 0.18 in - - ()
Sea Level Pressure  
Sea Level Pressure 30.00 in    
Wind  
Wind Speed 4 mph (NW)    
Max Wind Speed 7 mph    
Max Gust Speed -    
Visibility 10 miles    
Events Rain    
Averages and records for this station are not official NWS values.
T = Trace of Precipitation, MM = Missing Value Source: NWS Daily Summary

Daily Weather History Graph

Daily Weather History Graph

Search for Another Location

Airport:

Trip Planner

Search our weather history database for the weather conditions in past years. The results will help you decide how hot, cold, wet, or windy it might be!

Date:

Astronomy

Jan. 01, 2013 Rise Set
Actual Time 7:20 AM EST 5:00 PM EST
Civil Twilight 6:51 AM EST 5:29 PM EST
Nautical Twilight 6:18 AM EST 6:01 PM EST
Astronomical Twilight 5:47 AM EST 6:33 PM EST
Moon 9:22 PM EST (1/1) 9:37 AM EST (1/1)
Length of Visible Light 10h 38m
Length of Day
9h 40m
Waning Gibbous, 83% of the Moon is Illuminated
Jan 1
Waning Gibbous
Jan 4
Last Quarter
Jan 11
New
Jan 18
First Quarter
Jan 26
Full

Hourly Weather History & Observations

Time (EST) Temp. Windchill Dew Point Humidity Pressure Visibility Wind Dir Wind Speed Gust Speed Precip Events Conditions
12:55 AM 47.5 °F - 28.0 °F 47% 30.04 in 10.0 mi Variable 6.9 mph - N/A   Mostly Cloudy
1:55 AM 47.3 °F - 28.0 °F 47% 30.05 in 10.0 mi WSW 5.8 mph - N/A   Mostly Cloudy
2:55 AM 47.1 °F - 28.4 °F 48% 30.04 in 10.0 mi Variable 3.5 mph - N/A   Scattered Clouds
3:55 AM 46.6 °F - 28.9 °F 50% 30.01 in 10.0 mi Variable 3.5 mph - N/A   Scattered Clouds
4:55 AM 46.4 °F - 29.1 °F 51% 30.01 in 10.0 mi Calm Calm - N/A   Overcast
5:43 AM 46.4 °F 45.2 °F 30.2 °F 53% 30.03 in 10.0 mi Variable 3.5 mph - N/A Rain Light Rain
5:55 AM 46.2 °F 45.0 °F 30.0 °F 53% 30.03 in 10.0 mi Variable 3.5 mph - 0.00 in   Light Drizzle
5:59 AM 46.4 °F 44.3 °F 30.2 °F 53% 30.03 in 10.0 mi Variable 4.6 mph - N/A   Mostly Cloudy
6:05 AM 46.4 °F 44.3 °F 30.2 °F 53% 30.03 in 10.0 mi Variable 4.6 mph - N/A   Light Drizzle
6:15 AM 46.4 °F 45.2 °F 30.2 °F 53% 30.03 in 10.0 mi West 3.5 mph - N/A   Mostly Cloudy
6:16 AM 46.4 °F 45.2 °F 30.2 °F 53% 30.03 in 10.0 mi Variable 3.5 mph - N/A   Light Drizzle
6:24 AM 46.4 °F 44.3 °F 30.2 °F 53% 30.04 in 10.0 mi West 4.6 mph - N/A   Overcast
6:34 AM 46.4 °F 43.5 °F 30.2 °F 53% 30.04 in 10.0 mi West 5.8 mph - N/A Rain Light Rain
6:55 AM 45.0 °F 42.6 °F 32.9 °F 63% 30.03 in 10.0 mi Variable 4.6 mph - 0.00 in Rain Light Rain
7:55 AM 43.2 °F - 35.8 °F 75% 30.01 in 10.0 mi Calm Calm - 0.01 in Rain Light Rain
8:55 AM 42.4 °F - 36.9 °F 81% 30.02 in 10.0 mi Calm Calm - 0.02 in Rain Light Rain
9:55 AM 42.4 °F - 37.8 °F 83% 30.04 in 10.0 mi Calm Calm - 0.02 in Rain Light Rain
10:42 AM 42.8 °F 39.3 °F 39.2 °F 87% 30.05 in 10.0 mi SW 5.8 mph - N/A   Scattered Clouds
10:55 AM 43.2 °F 40.5 °F 38.1 °F 82% 30.02 in 10.0 mi South 4.6 mph - 0.01 in   Partly Cloudy
11:55 AM 44.8 °F 42.4 °F 38.8 °F 80% 29.99 in 10.0 mi Variable 4.6 mph - N/A   Clear
12:55 PM 45.7 °F - 38.3 °F 75% 29.96 in 10.0 mi Calm Calm - N/A   Partly Cloudy
1:55 PM 46.2 °F 44.1 °F 38.7 °F 75% 29.94 in 10.0 mi SW 4.6 mph - N/A   Overcast
2:55 PM 46.9 °F - 38.7 °F 73% 29.93 in 10.0 mi Variable 5.8 mph - N/A   Mostly Cloudy
3:55 PM 47.1 °F - 39.0 °F 73% 29.95 in 10.0 mi West 4.6 mph - N/A   Scattered Clouds
4:36 PM 46.4 °F 45.2 °F 39.2 °F 76% 29.96 in 10.0 mi West 3.5 mph - N/A Rain Light Rain
4:54 PM 46.4 °F 44.3 °F 39.2 °F 76% 29.96 in 10.0 mi NNW 4.6 mph - N/A   Mostly Cloudy
4:55 PM 46.4 °F 45.2 °F 40.1 °F 79% 29.96 in 10.0 mi NNW 3.5 mph - 0.00 in   Mostly Cloudy
5:55 PM 45.3 °F - 40.5 °F 83% 29.96 in 10.0 mi Calm Calm - N/A   Partly Cloudy
6:55 PM 44.4 °F - 41.0 °F 88% 29.98 in 10.0 mi Calm Calm - N/A   Clear
7:55 PM 43.3 °F - 41.2 °F 92% 29.97 in 10.0 mi Calm Calm - N/A   Partly Cloudy
8:02 PM 44.6 °F - 41.0 °F 87% 29.97 in 10.0 mi Calm Calm - N/A   Scattered Clouds
8:14 PM 44.6 °F - 41.0 °F 87% 29.97 in 10.0 mi Calm Calm - N/A   Mostly Cloudy
8:31 PM 44.6 °F - 41.0 °F 87% 29.97 in 10.0 mi Calm Calm - N/A Rain Light Rain
8:55 PM 43.9 °F - 41.2 °F 90% 29.98 in 10.0 mi Calm Calm - 0.00 in   Light Drizzle
8:56 PM 44.6 °F - 41.0 °F 87% 29.98 in 10.0 mi Calm Calm - N/A   Clear
9:05 PM 42.8 °F - 41.0 °F 93% 29.98 in 10.0 mi Calm Calm - N/A Rain Light Rain
9:55 PM 44.4 °F - 42.3 °F 92% 29.99 in 9.0 mi Calm Calm - 0.04 in   Mostly Cloudy
10:55 PM 44.2 °F 41.8 °F 42.6 °F 94% 30.01 in 9.0 mi North 4.6 mph - 0.04 in Rain Light Rain
11:20 PM 44.6 °F 41.4 °F 42.8 °F 93% 30.01 in 10.0 mi NE 5.8 mph - N/A Rain Light Rain
11:21 PM 44.6 °F 42.2 °F 42.8 °F 93% 30.01 in 10.0 mi NE 4.6 mph - N/A Rain Light Rain
11:22 PM 44.6 °F 42.2 °F 42.8 °F 93% 30.01 in 9.0 mi NE 4.6 mph - N/A   Mostly Cloudy
11:35 PM 44.6 °F 43.1 °F 41.0 °F 87% 30.01 in 10.0 mi NE 3.5 mph - N/A   Mostly Cloudy
11:55 PM 43.3 °F 41.7 °F 41.4 °F 93% 30.01 in 10.0 mi NE 3.5 mph - 0.04 in Rain Light Rain